Location: Bidwell Hollow
(37.7387°N, 90.1707°W)
Time: 23:54:09
(UTC+00:00)

Altair - Pass Details

Date: 14 May 2026
Orbit: 1501 x 1682 km, 47.2° (Epoch: 6 June)

Event Time Altitude Azimuth Distance (km) Brightness Sun altitude
Exits shadow 09:08:03 11° 186° (S) 3,746 9.1 -17.9°
Maximum altitude 09:16:00 32° 129° (SE) 2,555 8.7 -16.8°
Drops below altitude 10° 09:24:24 10° 71° (ENE) 3,926 10.8 -15.5°
Sets 09:28:02 0° 62° (ENE) 4,929 11.9 -14.9°
